Home > Weather > Bogota > Past weeks

Flag for Colombia Past Weather in Bogota, Colombia — Yesterday and Last 2 Weeks

Now
63 °F

Partly sunny.


Feels Like: 63 °F
Forecast: 49 / 61 °F
Wind: 9 mph from Southeast

Location: Bogota / Eldorado

Current Time: Jul 29, 2016 at 2:54:31 PM

Latest Report: Jul 29, 2016 at 2:00 PM


Visibility: N/A

Pressure: 30.29 "Hg (22.25 "Hg at 2618m altitude)

Humidity: 52%

Dew Point: 45 °F

Location of BogotaLocation

Past Weather in Bogota — Graph

°F

Bogota Temperature Yesterday

Maximum temperature yesterday: 64 °F (at 4:00 PM)
Minimum temperature yesterday: 50 °F (at 1:00 AM)
Average temperature yesterday: 57 °F

High & Low Weather Summary for the Past Weeks

 TemperatureHumidityPressure
High68 °F (Jul 14, 1:00 PM)100% (Jul 16, 12:00 PM)30.43 "Hg (Jul 16, 12:00 PM)
Low45 °F (Jul 16, 12:00 PM)38% (Jul 14, 4:00 PM)30.24 "Hg (Jul 26, 4:00 PM)
Average56 °F75%30.34 "Hg
* Reported Jul 14 1:00 PM — Jul 29 1:00 PM, Bogota, Weather by CustomWeather, © 2016

Note: Actual official high and low records may vary slightly from our data, if they occured in-between our weather recording intervals... More about our weather records

Advertising

Bogota Weather History for the Previous 24 Hours

Scroll right to see more
 ConditionsComfort  
Time TempWeatherWind HumidityBarometerVisibility
1:00 PM
Fri, Jul 29
63 °FPartly sunny.14 mph52%30.32 "HgN/A
12:00 PM63 °FScattered showers. Broken clouds.12 mph52%30.35 "HgN/A
11:00 AM61 °FScattered showers. Broken clouds.10 mph55%30.35 "HgN/A
10:00 AM61 °FBroken clouds.15 mph55%30.36 "HgN/A
9:00 AM59 °FScattered showers. Broken clouds.7 mph63%30.37 "HgN/A
8:00 AM57 °FBroken clouds.7 mph67%30.35 "HgN/A
7:00 AM52 °FBroken clouds.3 mph82%30.33 "HgN/A
6:00 AM50 °FScattered clouds.5 mph88%30.31 "HgN/A
5:00 AM50 °FPassing clouds.7 mph88%30.30 "HgN/A
4:00 AM52 °FPassing clouds.5 mph88%30.31 "HgN/A
3:00 AM54 °FScattered showers. Passing clouds.2 mph82%30.32 "HgN/A
2:00 AM54 °FScattered showers. Passing clouds.8 mph82%30.33 "HgN/A
1:00 AM54 °FScattered showers. Passing clouds.2 mph77%30.34 "HgN/A
12:00 AM55 °FScattered showers. Passing clouds.3 mph72%30.37 "HgN/A
11:00 PM
Thu, Jul 28
57 °FPassing clouds.8 mph63%30.38 "HgN/A
10:00 PM57 °FPassing clouds.7 mph67%30.36 "HgN/A
9:00 PM57 °FPassing clouds.7 mph67%30.35 "HgN/A
8:00 PM57 °FPassing clouds.7 mph67%30.33 "HgN/A
7:00 PM59 °FPassing clouds.10 mph59%30.31 "HgN/A
6:00 PM61 °FScattered clouds.10 mph52%30.29 "HgN/A
5:00 PM63 °FScattered clouds.12 mph49%30.27 "HgN/A
4:00 PM64 °FScattered clouds.12 mph43%30.26 "HgN/A
3:00 PM63 °FScattered clouds.12 mph49%30.27 "HgN/A
2:00 PM63 °FScattered showers. Scattered clouds.18 mph52%30.29 "HgN/A
Weather by CustomWeather, © 2016

See weather overviewHow to use our weather pages